Location: Pasarilla del Rebollar
(40.6790°N, 5.0062°W)
Time: 11:10:35
(UTC+00:00)

SL-16 R/B - Pass Details

Date: 22 April 2026
Orbit: 985 x 1007 km, 99.8° (Epoch: 20 May)

Event Time Altitude Azimuth Distance (km) Brightness Sun altitude
Rises 03:54:25 0° 155° (SSE) 3,715 5.5 -17.4°
Reaches altitude 10° 03:56:53 10° 152° (SSE) 2,771 4.8 -17.0°
Maximum altitude 04:03:04 68° 71° (ENE) 1,081 2.9 -16.0°
Drops below altitude 10° 04:09:17 10° 350° (N) 2,790 5.2 -15.0°
Sets 04:11:47 0° 348° (NNW) 3,744 5.8 -14.6°
